• MPC Preparation (Info)

  • MPEC 2004-A10 : COMET C/2003 U1 (LINEAR)

    The following Minor Planet Electronic Circular may be linked-to from your own Web pages, but must not otherwise be redistributed electronically.

    A form allowing access to any MPEC is at the bottom of this page.


    Read MPEC 2004-A09 Read MPEC 2004-A11


    M.P.E.C. 2004-A10                                Issued 2004 Jan. 3, 16:34 UT
    
         The Minor Planet Electronic Circulars contain information on unusual
             minor planets and routine data on comets.  They are published
       on behalf of Commission 20 of the International Astronomical Union by the
              Minor Planet Center, Smithsonian Astrophysical Observatory,
                              Cambridge, MA 02138, U.S.A.
    
             Supported in part by the Steven and Michele Kirsch Foundation
                 Prepared using the Tamkin Foundation Computer Network
    
                                  MPC@CFA.HARVARD.EDU
              URL http://cfa-www.harvard.edu/iau/mpc.html  ISSN 1523-6714
    
                               COMET C/2003 U1 (LINEAR)
    
    Observations:
        CK03U010  C2003 12 16.06370 23 37 05.52 -18 17 28.0          18.7 T EA010704
        CK03U010  C2003 12 16.07593 23 37 04.10 -18 17 22.8          19.3 T EA010704
        CK03U010  C2003 12 16.08817 23 37 02.78 -18 17 17.0          19.5 T EA010704
        CK03U010  C2003 12 16.10476 23 37 00.82 -18 17 09.5          19.2 T EA010704
        CK03U010  C2003 12 16.11694 23 36 59.51 -18 17 00.8          19.0 T EA010704
        CK03U010  C2003 12 17.07523 23 35 16.46 -18 09 06.0          19.0 T EA010704
        CK03U010  C2003 12 17.09022 23 35 14.86 -18 08 56.7          19.4 T EA010704
        CK03U010  C2003 12 17.10281 23 35 13.52 -18 08 52.3          19.3 T EA010704
        CK03U010  C2003 12 17.11544 23 35 12.25 -18 08 47.5          19.1 T EA010704
        CK03U010  C2003 12 18.06328 23 33 35.50 -18 00 58.1          19.2 T EA010704
        CK03U010  C2003 12 18.07629 23 33 34.19 -18 00 51.0          19.2 T EA010704
        CK03U010  C2003 12 18.09082 23 33 32.74 -18 00 43.9          19.2 T EA010704
        CK03U010  C2003 12 18.10462 23 33 31.33 -18 00 37.1          19.3 T EA010704
        CK03U010  C2003 12 18.11856 23 33 30.04 -18 00 30.4          19.2 T EA010704
        CK03U010  C2003 12 21.06310 23 28 59.99 -17 36 25.0          18.9 T EA010704
        CK03U010  C2003 12 21.07750 23 28 58.77 -17 36 17.7          19.1 T EA010704
        CK03U010  C2003 12 21.09073 23 28 57.68 -17 36 11.6          19.3 T EA010704
        CK03U010  C2003 12 21.10421 23 28 56.47 -17 36 05.5          19.4 T EA010704
        CK03U010  C2003 12 21.11750 23 28 55.37 -17 35 58.9          19.4 T EA010704
    
    Observer details:
    704 Lincoln Laboratory ETS, New Mexico.  Observers M. Blythe, F. Shelly,
        M. Bezpalko, R. Huber, L. Manguso, D. Torres, R. Kracke, M. McCleary,
        H. Stange, A. Milner.  Measurers J. Stuart, R. Sayer, J. Evans, J. Kommers.
        1.0-m f/2.15 reflector + CCD.
    
    Orbital elements:
        C/2003 U1 (LINEAR)
    Epoch 2003 Nov. 17.0 TT = JDT 2452960.5
    T 2003 Nov. 3.39812 TT                                  MPC
    q   1.7957083            (2000.0)            P               Q
    n   0.00900613     Peri.  278.38389     +0.69288375     +0.70262268
    a  22.8793614      Node   322.76305     +0.72065570     -0.66738728
    e   0.9215141      Incl.  164.47463     +0.02382144     -0.24681086
    P 109.44
    Residuals in seconds of arc
    031019 704  0.3+  0.5+    031022 704  0.3-  0.5+    031101 900 (2.3-  0.9+)
    031019 704  0.6-  0.2+    031022 704  1.4+  0.1-    031102 H41  0.4+  0.4-
    031019 704  0.1+  0.1-    031022 704  0.1-  1.1+    031102 H41  0.1+  0.1-
    031019 704  0.5-  0.5+    031022 704  0.0   0.2-    031102 H41  0.3+  0.1+
    031019 704  0.5-  0.1+    031022 704  0.1-  0.2+    031102 H41  0.2+  0.3-
    031020 J95  1.0-  0.2+    031023 H41  0.5+  0.6-    031103 785 (3.9+  1.0+)
    031020 J95  0.2+  0.3+    031023 H41  0.3+  0.2+    031103 785 (3.2+  0.6+)
    031020 J95  0.2-  0.0     031023 H41  0.7+  0.6-    031103 785  1.6+  1.5+
    031020 J95  1.2-  0.4-    031023 704  0.1+  0.1+    031104 H41  0.8-  0.6-
    031020 J95  0.5-  0.3+    031023 704  0.4-  0.3+    031104 H41  1.0-  0.1-
    031020 785  0.9+  0.9-    031023 704  0.1-  0.4+    031104 H41  0.5-  0.5-
    031020 854  0.6+  0.4+    031023 704  0.2+  0.1+    031109 608  0.3+  1.3+
    031020 785 (3.0-  0.6-)   031023 360  0.2+  0.2-    031109 608  0.3+  1.0+
    031020 854  0.4+  0.2+    031023 360  0.4+  0.5+    031109 608  0.3-  1.2+
    031020 785  1.2+  0.1-    031023 360  0.8+  0.6-    031112 608  0.6-  0.4+
    031020 704  0.6+  0.6-    031024 850  0.2-  0.5-    031112 608  0.5-  0.4+
    031020 704  0.4-  0.2-    031024 H41  0.3+  0.6-    031112 608  0.2-  0.2+
    031020 704  0.3-  0.1-    031024 850  0.2+  0.0     031116 360  0.2+  0.5-
    031020 704  0.3-  0.3-    031024 H41  0.3+  0.1+    031116 360  0.0   0.4-
    031020 926  1.3-  0.0     031024 H41  0.1+  0.2+    031117 900  1.3+  0.2-
    031020 926  0.6-  0.3-    031024 H41  0.3-  0.6+    031117 900  0.3-  0.0
    031020 926  0.2-  0.2+    031024 H41  0.6+  0.1-    031122 D70  0.5-  0.3-
    031020 704  0.2-  0.1-    031024 850  0.6-  0.0     031122 D70  1.3+  0.4-
    031020 673  0.5+  0.1-    031024 H41  0.9-  0.1-    031122 D70  0.2-  0.1-
    031020 673  0.4+  0.0     031024 704  0.4-  0.7+    031123 900  0.3-  0.4+
    031020 673  0.4+  0.1-    031024 704  1.3-  0.1-    031123 900  1.6+  1.2+
    031020 673  0.6+  0.0     031024 704  0.0   1.0-    031123 360  0.7-  0.7-
    031020 673  0.7+  0.1+    031024 704  0.8-  0.5+    031123 360  0.4-  0.8-
    031020 673  0.6+  0.0     031024 704  0.3-  0.6+    031126 704  0.1+  0.1-
    031020 673  0.5+  0.0     031026 204  0.2-  0.3+    031126 704  0.2-  0.3+
    031020 673  0.5+  0.0     031026 204  0.4-  0.4-    031126 704  0.2+  0.1+
    031020 428  0.1+  0.6-    031026 204  0.2+  0.3+    031126 704  0.3-  0.2+
    031020 428  0.4+  0.4-    031026 204  0.6-  0.9+    031126 704  0.4+  0.1+
    031020 428  0.3-  0.1-    031026 204  1.3-  0.8+    031126 428  0.6+  0.1-
    031021 J95  0.0   0.2-    031027 A41  0.1+  0.3+    031126 428  0.2+  0.3-
    031021 J95  0.0   0.1+    031027 A41  0.1+  0.6-    031126 428  0.3-  0.8-
    031021 J95  0.0   0.1+    031027 A41  0.2-  0.0     031127 H72  0.6-  1.6+
    031021 H41 (2.7+  0.9-)   031028 166  0.2+  0.0     031127 H72  0.3-  0.3-
    031021 H41  0.3+  0.4+    031028 166  0.7+  0.1-    031127 H72  1.0-  0.1+
    031021 H41  0.5+  0.1-    031028 166  0.3-  1.0-    031211 620  1.2+  0.4+
    031021 H41  1.3+  0.0     031028 166  0.8-  0.1-    031211 620  0.4-  0.2-
    031021 699 (2.1-  0.4-)   031028 166  0.1-  0.0     031211 620  0.5+  0.2-
    031021 H41  0.7+  0.2-    031028 166  0.2+  0.1-    031212 620  0.6-  0.1-
    031021 H41  1.2+  0.2-    031028 561 (5.2-  1.4-)   031212 620  0.9-  0.6-
    031021 699  1.9-  0.7+    031028 561  1.8+  0.4-    031216 704  0.2+  0.3-
    031021 699  0.0   0.2-    031028 561 (6.0-  1.5-)   031216 704  0.4-  1.2-
    031021 699  1.1-  1.4-    031028 561  1.9+  0.2+    031216 704  0.4+  1.5-
    031021 704  0.5-  0.1-    031028 561 (7.1-  3.5-)   031216 704 (1.0-  2.3-)
    031021 704  0.8+  0.3+    031028 561 (2.2+  0.5+)   031216 704  0.2-  0.4+
    031021 704  0.9-  0.1-    031029 H41  0.4-  0.2+    031217 704  0.1+  0.7+
    031021 704  0.1-  0.1+    031029 H41  1.3-  1.5-    031217 704 (0.1+  2.5+)
    031021 704  1.1-  0.4+    031029 H41  0.9-  1.1-    031217 704  0.1+  0.7+
    031021 704  0.2+  0.2+    031029 H41  0.9-  1.0-    031217 704  1.2+  0.8-
    031021 704  1.1-  0.3+    031029 349  0.4-  0.3+    031218 704  0.4-  0.2+
    031021 704  0.1+  0.8+    031029 349  0.2+  0.2+    031218 704  0.3-  0.8+
    031021 704  1.5-  0.3+    031029 349  0.4-  0.0     031218 704  0.0   0.7+
    031022 H41  0.7+  0.9-    031029 349  0.5-  0.2-    031218 704  0.3-  0.7+
    031022 H41  1.7+  1.5+    031029 349  0.1-  0.1-    031218 704  1.4+  0.5+
    031022 H41  0.9-  0.0     031029 360  0.6+  0.2-    031221 704  0.7-  0.2+
    031022 H41  1.5-  0.1+    031029 360  0.4+  0.1-    031221 704  0.4-  0.4+
    031022 704  0.1+  0.1+    031029 360  0.4+  0.1-    031221 704  0.3+  0.0
    031022 704  0.4+  0.2+    031030 785  0.6-  0.4-    031221 704  0.5-  0.5-
    031022 704  1.3+  0.1+    031030 785  0.5+  1.6-    031221 704  0.1+  0.4-
    031022 704  0.3+  0.0     031030 785  0.9+  0.0
    031022 704  0.2+  0.4+    031101 900  0.8+  0.1-
    
    Brian G. Marsden             (C) Copyright 2004 MPC           M.P.E.C. 2004-A10
    

    Read MPEC 2004-A09 Read MPEC 2004-A11


    MPEC number:

    Enter an MPEC number in one of the following forms:

    • 1997-B01 (the full form)
    • J97B01 (the packed version of the full form)
    • B01 (the abbreviated form)